013  
NZUS99 KSGF 210907  
HRRSGF  
 
HOURLY WEATHER  
NATIONAL WEATHER SERVICE SPRINGFIELD MO  
400 AM CDT SUN JUL 21 2019  
   
.....SGF CWA...
 
 
 
CITY SKY/WX TMP DP RH WIND PRES REMARKS  
SPRINGFIELD MOCLDY 76 71 85 S3 29.98F  
JOPLIN CLEAR 78 72 81 S8 29.95R  
WEST PLAINS PTCLDY 75 72 90 SW5 29.99S  
ROLLA CLEAR 73 67 81 W7 29.96S  
OSAGE BEACH CLEAR 73 70 90 SW5 29.97F  
   
.....SURROUNDING SGF CWA...
 
 
 
CITY SKY/WX TMP DP RH WIND PRES REMARKS  
CHANUTE CLEAR 80 72 76 S8 29.91S  
PARSONS CLEAR 77 73 87 S9G18 29.91F  
COFFEYVILLE CLEAR 77 72 84 S7 29.90S  
EMPORIA CLEAR 76 73 91 S9 29.90R  
GROVE OK CLEAR 73 70 88 SE3 29.95S  
ROGERS AR CLEAR 73 71 93 S8 29.98F  
SILOAM SPRINGS CLEAR 72 70 93 MISG 29.98S  
HARRISON AR CLEAR 74 71 91 S3 29.98F  
NEAR YELLVILLE CLEAR 75 72 90 CALM 29.96S  
   
.....KANSAS AND MISSOURI...
 
 
 
CITY SKY/WX TMP DP RH WIND PRES REMARKS  
KANSAS CTY INT LGT RAIN 70 69 97 S13 30.01F  
DOWNTOWN KC HVY RAIN 72 69 90 SE8 30.01S FOG  
COLUMBIA CLEAR 72 69 90 W12 29.94S  
SEDALIA LGT RAIN 68 N/A N/A CALM 29.99F  
ST JOSEPH CLOUDY 72 68 87 E13 29.96F  
ST LOUIS MOCLDY 81 73 76 SW7 29.87F  
SPIRIT OF STL CLEAR 78 72 81 W6 29.86F  
KIRKSVILLE LGT RAIN 70 68 93 NW9 29.96R  
WICHITA PTCLDY 76 66 71 S5 29.91R  
TOPEKA CLOUDY 75 70 84 E18G31 29.97R  
OLATHE RAIN 69 69 100 E14G22 30.03S FOG  
   
.....TENNESSEE...
 
 
 
CITY SKY/WX TMP DP RH WIND PRES REMARKS  
MEMPHIS FAIR 76 75 97 S7 29.97S  
NASHVILLE FAIR 72 69 90 S5 30.01S  
   
.....ARKANSAS....
 
 
 
CITY SKY/WX TMP DP RH WIND PRES REMARKS  
FAYETTEVILLE CLEAR 71 71 100 CALM 29.99S FOG  
FT SMITH CLEAR 77 76 96 CALM 29.94S  
LITTLE ROCK PTCLDY 76 74 93 CALM 29.95F  
   
.....OKLAHOMA....
 
 
 
CITY SKY/WX TMP DP RH WIND PRES REMARKS  
TULSA CLEAR 81 72 74 S10 29.88F  
PONCA CITY CLEAR 78 70 76 S12 29.89R  
MCALESTER PTCLDY 77 70 79 CALM 29.94R  
OKLAHOMA CITY PTCLDY 73 70 90 SE9 29.90R  
   
.....IOWA.........
 
 
 
CITY SKY/WX TMP DP RH WIND PRES REMARKS  
DES MOINES CLOUDY 69 66 90 N8 29.94F  
QUAD CITIES FAIR 77 67 71 NE7 29.90R  
   
.....ILLINOIS.....
 
 
 
CITY SKY/WX TMP DP RH WIND PRES REMARKS  
QUINCY CLEAR 75 70 84 NW18G28 29.89R  
CHICAGO MOCLDY 70 66 87 NE10 29.91S THUNDER  
 
 
 
CLICK HERE TO GO TO PREVIOUS BULLETINS.

The Nexlab MO Page
The Nexlab KS Page Main Text Page